N8VDS-10 Weather Reports


time (UTC)temp
F
wind
direction
speed
knots
gust
knots
rain 1hr
in
rain 24hr
in
rain mn
in
humidity
%
barometer
mb
20260502170313 44 323 8.7 12.2 0.00 0.00 0.00 47 1021.3
20260502164300 45 281 11.3 16.5 0.00 0.00 0.00 45 1021.3
20260502163755 43 272 12.2 13.0 0.00 0.00 0.00 47 1021.6
20260502163252 43 204 2.6 4.3 0.00 0.00 0.00 47 1021.4
20260502162749 43 262 11.3 13.0 0.00 0.00 0.00 47 1021.6
20260502162246 43 289 7.0 10.4 0.00 0.00 0.00 49 1021.7
20260502161743 44 267 11.3 18.2 0.00 0.00 0.00 45 1021.6
20260502161239 44 216 5.2 6.1 0.00 0.00 0.00 46 1021.6
20260502160732 43 293 3.5 4.3 0.00 0.00 0.00 45 1021.4
20260502160231 43 239 1.7 2.6 0.00 0.00 0.00 49 1021.7
20260502152154 43 219 9.6 12.2 0.00 0.00 0.00 49 1021.6
20260502151652 42 233 2.6 2.6 0.00 0.00 0.00 50 1021.6
20260502151149 42 287 3.5 6.1 0.00 0.00 0.00 48 1021.7
20260502150646 43 273 7.8 8.7 0.00 0.00 0.00 48 1021.7
20260502150143 42 205 1.7 2.6 0.00 0.00 0.00 46 1021.7
20260502140106 41 169 1.7 2.6 0.00 0.00 0.00 49 1021.9
20260502130531 40 224 3.5 4.3 0.00 0.00 0.00 62 1021.9
20260502123515 38 327 3.5 4.3 0.00 0.00 0.00 69 1022.0
20260502123011 38 215 4.3 7.8 0.00 0.00 0.00 70 1021.9
20260502122508 37 203 1.7 2.6 0.00 0.00 0.00 70 1021.7
20260502122005 37 214 4.3 7.8 0.00 0.00 0.00 71 1021.9
20260502121502 37 277 6.1 8.7 0.00 0.00 0.00 72 1022.0
20260502120959 37 319 1.7 2.6 0.00 0.00 0.00 72 1021.9
20260502120455 37 292 6.1 6.1 0.00 0.00 0.00 72 1021.8
20260502115450 36 201 0.9 1.7 0.00 0.00 0.00 74 1021.8
20260502114946 36 208 2.6 4.3 0.00 0.00 0.00 74 1021.8
20260502114444 36 188 0.0 1.7 0.00 0.00 0.00 75 1021.7
20260502113940 36 198 0.9 2.6 0.00 0.00 0.00 75 1021.7
20260502113438 36 246 1.7 2.6 0.00 0.00 0.00 75 1021.8
20260502112936 35 287 2.6 6.1 0.00 0.00 0.00 76 1021.8
20260502112433 35 238 2.6 2.6 0.00 0.00 0.00 77 1021.7
20260502111931 35 264 0.9 1.7 0.00 0.00 0.00 80 1021.8
20260502111427 34 208 0.9 1.7 0.00 0.00 0.00 81 1021.8
20260502110925 33 210 0.0 0.0 0.00 0.00 0.00 82 1021.7
20260502110423 33 207 1.7 2.6 0.00 0.00 0.00 83 1021.4
20260502105920 33 203 0.0 0.0 0.00 0.00 0.00 83 1021.8
20260502105418 33 209 0.0 0.0 0.00 0.00 0.00 83 1021.4
20260502104916 33 208 0.0 0.0 0.00 0.00 0.00 83 1021.5
20260502104412 33 212 0.0 0.0 0.00 0.00 0.00 83 1021.4
20260502103909 33 210 0.0 0.0 0.00 0.00 0.00 83 1021.3
20260502103407 33 211 0.0 0.0 0.00 0.00 0.00 84 1021.4
20260502102904 33 231 0.0 0.0 0.00 0.00 0.00 85 1021.1
20260502102400 34 203 0.0 0.0 0.00 0.00 0.00 85 1021.3
20260502101858 34 218 0.0 0.0 0.00 0.00 0.00 86 1021.2
20260502101356 34 213 0.0 0.0 0.00 0.00 0.00 87 1021.2
20260502100854 34 237 0.0 0.0 0.00 0.00 0.00 89 1021.1
20260502100353 34 212 0.0 0.0 0.00 0.00 0.00 89 1021.1
20260502091326 34 203 0.0 0.0 0.00 0.00 0.00 90 1020.8
20260502090824 34 195 0.0 0.0 0.00 0.00 0.00 90 1020.9
20260502090321 34 195 0.0 0.0 0.00 0.00 0.00 89 1020.8
20260502071216 37 176 0.0 0.0 0.00 0.00 0.00 81 1020.6
20260502070714 37 173 0.0 0.0 0.00 0.00 0.00 81 1020.6
20260502070211 37 175 0.0 0.0 0.00 0.00 0.00 81 1020.7
20260502065710 37 175 0.0 0.0 0.00 0.00 0.00 81 1020.6
20260502065207 37 179 0.0 0.0 0.00 0.00 0.00 81 1020.6
20260502064706 37 174 0.0 0.0 0.00 0.00 0.00 81 1020.8
20260502064202 37 171 0.0 0.0 0.00 0.00 0.00 81 1020.8
20260502063700 37 172 0.0 0.0 0.00 0.00 0.00 81 1020.8
20260502063158 37 172 0.0 0.0 0.00 0.00 0.00 81 1020.7
20260502062655 37 172 0.0 0.0 0.00 0.00 0.00 81 1020.9
20260502062152 37 168 0.0 0.0 0.00 0.00 0.00 81 1020.9
20260502061651 37 176 0.0 0.0 0.00 0.00 0.00 81 1020.8
20260502061148 37 161 0.0 0.0 0.00 0.00 0.00 81 1021.0
20260502060648 37 173 0.0 0.0 0.00 0.00 0.00 81 1021.1
20260502060145 37 164 0.9 1.7 0.00 0.00 0.00 81 1021.1
20260502055643 37 161 0.0 0.0 0.00 0.00 0.00 81 1021.0
20260502055140 37 143 0.9 1.7 0.00 0.00 0.00 81 1020.9
20260502054639 37 158 0.0 0.0 0.00 0.00 0.00 81 1021.0
20260502054136 37 163 0.0 0.0 0.00 0.00 0.00 81 1021.2
20260502053633 37 161 0.0 0.0 0.00 0.00 0.00 81 1021.1
20260502053130 37 102 1.7 2.6 0.00 0.00 0.00 81 1021.1
20260502052629 37 47 0.9 1.7 0.00 0.00 0.00 81 1021.0
20260502052126 37 77 2.6 4.3 0.00 0.00 0.00 81 1021.1
20260502051625 38 87 1.7 2.6 0.00 0.00 0.00 81 1020.9
20260502051122 38 158 0.0 0.0 0.00 0.00 0.00 80 1020.9
20260502050618 38 43 1.7 2.6 0.00 0.00 0.00 80 1021.0
20260502050115 38 118 1.7 2.6 0.00 0.00 0.00 80 1020.9
20260502045611 38 137 0.9 1.7 0.00 0.00 0.00 80 1020.7
20260502045109 38 122 1.7 1.7 0.00 0.00 0.00 79 1020.8
20260502044605 38 102 1.7 2.6 0.00 0.00 0.00 79 1020.6
20260502044102 38 106 2.6 2.6 0.00 0.00 0.00 78 1020.5
20260502043600 39 84 1.7 4.3 0.00 0.00 0.00 78 1020.6
20260502043056 39 96 2.6 6.1 0.00 0.00 0.00 76 1020.5
20260502042551 39 96 0.0 0.0 0.00 0.00 0.00 72 1020.5
20260502042049 40 82 8.7 12.2 0.00 0.00 0.00 69 1020.5
20260502041547 40 308 1.7 2.6 0.00 0.00 0.00 62 1020.5
20260502041043 41 329 1.7 1.7 0.00 0.00 0.00 61 1020.5
20260502040540 41 214 0.9 1.7 0.00 0.00 0.00 60 1020.6
20260502040037 41 349 4.3 6.1 0.00 0.00 0.00 58 1020.5
20260502035533 41 32 0.0 0.0 0.00 0.00 0.00 56 1020.4
20260502035031 41 159 0.9 1.7 0.00 0.00 0.00 54 1020.4
20260502034528 41 225 0.9 1.7 0.00 0.00 0.00 54 1020.4
20260502034027 41 241 1.7 1.7 0.00 0.00 0.00 53 1020.2
20260502033525 41 240 2.6 2.6 0.00 0.00 0.00 54 1020.2
20260502033022 41 230 0.9 1.7 0.00 0.00 0.00 53 1020.3
20260502032517 41 297 0.9 1.7 0.00 0.00 0.00 54 1020.4
20260502032015 41 228 0.0 1.7 0.00 0.00 0.00 55 1020.3
20260502031512 41 245 1.7 2.6 0.00 0.00 0.00 53 1020.2
20260502031010 41 247 2.6 2.6 0.00 0.00 0.00 55 1020.3
20260502030508 41 211 0.9 1.7 0.00 0.00 0.00 55 1020.2
20260502030005 41 3 0.9 1.7 0.00 0.00 0.00 54 1020.3
20260502025502 41 280 2.6 4.3 0.00 0.00 0.00 55 1020.4
20260502025000 41 203 0.0 1.7 0.00 0.00 0.00 57 1020.3
20260502024458 41 293 2.6 2.6 0.00 0.00 0.00 57 1020.2
20260502023956 41 229 0.9 1.7 0.00 0.00 0.00 59 1020.2
20260502023453 41 222 0.0 0.0 0.00 0.00 0.00 58 1020.3
20260502022951 41 206 0.0 0.0 0.00 0.00 0.00 58 1020.1
20260502022447 41 215 0.0 0.0 0.00 0.00 0.00 58 1020.1
20260502021944 41 246 0.9 1.7 0.00 0.00 0.00 58 1020.1
20260502021441 41 202 0.0 1.7 0.00 0.00 0.00 58 1020.2
20260502020938 41 308 1.7 2.6 0.00 0.00 0.00 57 1020.0
20260502020436 41 268 0.0 1.7 0.00 0.00 0.00 58 1020.2
20260502015932 41 336 0.9 2.6 0.00 0.00 0.00 58 1019.8
20260502015431 41 254 2.6 4.3 0.00 0.00 0.00 57 1020.0
20260502014927 42 15 4.3 4.3 0.00 0.00 0.00 57 1019.8
20260502014425 42 198 1.7 2.6 0.00 0.00 0.00 56 1020.0
20260502013921 42 340 2.6 4.3 0.00 0.00 0.00 55 1019.8
20260502013416 42 32 3.5 6.1 0.00 0.00 0.00 56 1019.6
20260502012913 42 298 2.6 4.3 0.00 0.00 0.00 55 1019.7
20260502012411 42 26 4.3 6.1 0.00 0.00 0.00 56 1019.7
20260502011908 42 45 5.2 7.8 0.00 0.00 0.00 56 1019.5
20260502011404 42 7 7.8 10.4 0.00 0.00 0.00 56 1019.4
20260502010902 43 19 2.6 4.3 0.00 0.00 0.00 57 1019.5
20260502010358 43 41 3.5 4.3 0.00 0.00 0.00 56 1019.4
20260502005855 43 325 2.6 2.6 0.00 0.00 0.00 56 1019.2
20260502005353 43 29 0.9 1.7 0.00 0.00 0.00 56 1019.2
20260502004850 43 188 0.0 1.7 0.00 0.00 0.00 56 1019.0
20260502004346 43 314 3.5 4.3 0.00 0.00 0.00 56 1019.2
20260502003844 44 333 3.5 6.1 0.00 0.00 0.00 54 1018.9
20260502003340 44 158 0.9 1.7 0.00 0.00 0.00 52 1019.1
20260502002837 44 329 3.5 4.3 0.00 0.00 0.00 51 1019.0
20260502002334 44 328 3.5 4.3 0.00 0.00 0.00 50 1019.1
20260502001831 44 268 3.5 4.3 0.00 0.00 0.00 51 1018.8
20260502001329 44 272 5.2 7.8 0.00 0.00 0.00 50 1019.0
20260502000826 44 258 1.7 2.6 0.00 0.00 0.00 51 1018.7
20260502000325 44 238 2.6 2.6 0.00 0.00 0.00 50 1018.8
20260501235820 44 303 2.6 2.6 0.00 0.00 0.00 49 1018.7
20260501235316 44 260 0.9 1.7 0.00 0.00 0.00 54 1018.9
20260501234811 44 286 3.5 6.1 0.00 0.00 0.00 54 1018.7
20260501234309 44 203 0.0 0.0 0.00 0.00 0.00 55 1018.9
20260501233808 45 229 0.0 0.0 0.00 0.00 0.00 54 1018.5
20260501233304 45 194 0.0 0.0 0.00 0.00 0.00 57 1018.7
20260501232800 45 305 1.7 1.7 0.00 0.00 0.00 56 1018.6
20260501232257 45 260 1.7 2.6 0.00 0.00 0.00 56 1018.8
20260501231755 44 100 1.7 2.6 0.00 0.00 0.00 56 1018.6
20260501231253 44 87 0.9 1.7 0.00 0.00 0.00 57 1018.8
20260501230751 44 197 0.0 0.0 0.00 0.00 0.00 56 1018.7
20260501230249 45 163 0.0 0.0 0.00 0.00 0.00 57 1018.6
20260501225746 45 313 0.0 0.0 0.00 0.00 0.00 57 1018.8
20260501225244 45 333 3.5 4.3 0.00 0.00 0.00 58 1018.6
20260501224739 44 49 1.7 2.6 0.00 0.00 0.00 58 1018.6
20260501224238 44 323 2.6 4.3 0.00 0.00 0.00 58 1018.7
20260501223733 45 270 1.7 2.6 0.00 0.00 0.00 55 1018.7
20260501223230 45 240 1.7 2.6 0.00 0.00 0.00 55 1018.6
20260501222726 45 213 0.9 1.7 0.00 0.00 0.00 55 1018.7
20260501222223 45 164 0.0 0.0 0.00 0.00 0.00 55 1018.8
20260501221720 44 216 1.7 2.6 0.00 0.00 0.00 55 1018.6
20260501221217 45 268 4.3 6.1 0.00 0.00 0.00 55 1018.5
20260501220715 44 250 2.6 4.3 0.00 0.00 0.00 56 1018.6
20260501220212 44 284 1.7 4.3 0.00 0.00 0.00 58 1018.6
20260501215709 44 187 0.0 0.0 0.00 0.00 0.00 59 1018.4
20260501215204 44 321 3.5 4.3 0.00 0.00 0.00 58 1018.4
20260501214659 45 340 4.3 6.1 0.00 0.00 0.00 57 1018.4
20260501214155 45 236 2.6 4.3 0.00 0.00 0.00 56 1018.4
20260501213652 45 356 3.5 6.1 0.00 0.00 0.00 56 1018.5
20260501213148 45 318 4.3 6.1 0.00 0.00 0.00 56 1018.5
20260501212645 45 325 3.5 7.8 0.00 0.00 0.00 55 1018.4
20260501212142 45 196 0.9 1.7 0.00 0.00 0.00 55 1018.4
20260501211638 45 296 3.5 8.7 0.00 0.00 0.00 54 1018.3
20260501211136 45 261 1.7 2.6 0.00 0.00 0.00 54 1018.2
20260501210632 45 297 3.5 4.3 0.00 0.00 0.00 54 1018.2
20260501210129 45 317 6.1 7.8 0.00 0.00 0.00 52 1018.3
20260501205625 45 281 6.1 7.8 0.00 0.00 0.00 52 1018.2
20260501205123 46 266 3.5 4.3 0.00 0.00 0.00 53 1018.0
20260501204619 46 223 0.0 1.7 0.00 0.00 0.00 53 1018.1
20260501204115 46 280 5.2 6.1 0.00 0.00 0.00 53 1018.1
20260501203612 46 262 3.5 6.1 0.00 0.00 0.00 53 1018.1
20260501203109 46 330 3.5 4.3 0.00 0.00 0.00 53 1018.2
20260501202607 46 167 0.9 1.7 0.00 0.00 0.00 54 1018.1
20260501202103 46 283 2.6 2.6 0.00 0.00 0.00 54 1018.2
20260501201600 45 314 3.5 4.3 0.00 0.00 0.00 55 1018.1
20260501201056 45 323 5.2 6.1 0.00 0.00 0.00 54 1018.0
20260501200554 46 311 6.1 7.8 0.00 0.00 0.00 55 1018.0
20260501200051 46 337 6.1 10.4 0.00 0.00 0.00 53 1017.9
20260501195549 46 274 13.0 16.5 0.00 0.00 0.00 49 1017.9
20260501195044 47 276 3.5 4.3 0.00 0.00 0.00 48 1018.0
20260501194539 47 272 2.6 2.6 0.00 0.00 0.00 50 1017.9
20260501194036 47 323 6.1 7.8 0.00 0.00 0.00 50 1017.8
20260501193533 47 244 2.6 4.3 0.00 0.00 0.00 51 1017.9
20260501193032 47 211 1.7 2.6 0.00 0.00 0.00 51 1017.9
20260501192528 47 56 3.5 4.3 0.00 0.00 0.00 50 1017.7
20260501192026 47 212 1.7 2.6 0.00 0.00 0.00 51 1017.9
20260501191523 47 303 1.7 2.6 0.00 0.00 0.00 52 1017.8
20260501191020 46 263 1.7 1.7 0.00 0.00 0.00 53 1018.0
20260501190515 46 310 2.6 4.3 0.00 0.00 0.00 54 1017.7
20260501190012 46 25 1.7 2.6 0.00 0.00 0.00 54 1017.7
20260501185508 46 200 1.7 6.1 0.00 0.00 0.00 52 1018.0
20260501185003 46 286 0.9 2.6 0.00 0.00 0.00 53 1017.7
20260501184459 45 325 4.3 7.8 0.00 0.00 0.00 54 1017.7
20260501183955 46 348 2.6 4.3 0.00 0.00 0.00 53 1017.9
20260501183452 46 347 1.7 2.6 0.00 0.00 0.00 54 1017.7
20260501182948 47 59 3.5 4.3 0.00 0.00 0.00 53 1017.8
20260501182445 46 208 0.9 1.7 0.00 0.00 0.00 54 1017.7
20260501181942 47 73 0.9 1.7 0.00 0.00 0.00 56 1017.7
20260501181439 46 183 3.5 4.3 0.00 0.00 0.00 55 1017.6
20260501180936 46 2 1.7 2.6 0.00 0.00 0.00 55 1017.6
20260501180433 45 309 3.5 6.1 0.00 0.00 0.00 55 1017.5
20260501175929 45 11 3.5 4.3 0.00 0.00 0.00 55 1017.5
20260501175426 46 251 6.1 8.7 0.00 0.00 0.00 54 1017.7
20260501174923 47 84 2.6 2.6 0.00 0.00 0.00 55 1017.7
20260501174421 47 233 1.7 2.6 0.00 0.00 0.00 54 1017.6
20260501173918 46 348 4.3 6.1 0.00 0.00 0.00 55 1017.9
20260501173416 46 336 5.2 10.4 0.00 0.00 0.00 55 1017.8
20260501172911 47 357 4.3 6.1 0.00 0.00 0.00 55 1017.4
20260501172406 46 201 0.0 1.7 0.00 0.00 0.00 54 1017.7